sat.trackr.live / text

‹ back to catalog

STARLINK-31666

NORAD 59572 · 2024-076J

PAYLOAD ACTIVE UNKNOWN

§ Identity

Operator
Country
US
Launch date
2024-04-23
Launch site
AFETR
Launch vehicle
Mass (kg)
RCS (m²)

Purposes: comms

External: N2YO · Heavens-Above · Gunter

§ Orbital elements

Epoch: 2026-05-25T03:08:24.504288Z

Period
94.27 min
Inclination
43.0047°
Eccentricity
0.0001077
Mean motion
15.27571562 rev/d
Perigee alt
482.3 km
Apogee alt
483.8 km
Semi-major
6,861.2 km
B*
7.2560e-5
RAAN
290.3325°
Arg perigee
271.3548°
Mean anomaly
88.7180°
Rev number
11,827

§ Raw data

STARLINK-316661 59572U 24076J   26145.13083917  .00001735  00000+0  72560-4 0  99962 59572  43.0047 290.3325 0001077 271.3548  88.7180 15.27571562118279

JSON: /api/v1/satellites/59572 · /tle

For live sub-satellite position, see the globe view (requires WebGL).

§ Visibility from observer

Set your observer location to see the next 7 days of passes ≥ 10°. The values pass through the URL so the page stays shareable.

No JS? Fill the form by hand. The geolocation button needs JavaScript.